Meteo Giornale » Osservazioni meteo Olanda » Lelystad

ore: 16:55 - Osservazioni Meteo Lelystad
Lat. 52° 27' N Lon. 5° 31' E Alt. -6 metri s.l.m.

poco_nuvoloso

20 °C

Poco Nuvoloso

Temp. 24 Ore

14 °C

21 °C

Ovest

18.5 Km/h

Dew point 12 °C

Umidità 59 %

Visibilità  10 Km

Il sole sorge alle ore 06:49

Il sole tramonta alle ore 20:26

Data e Ora Cielo e Fenomeni T °C DP °C Um. % Pres. hPa Vis. km Vento km/h
Oggi h: 16:55 poco_nuvoloso Poco Nuvoloso 20 12 59 1019 10 O 18.5
Oggi h: 16:25 poco_nuvoloso Poco Nuvoloso 20 12 59 1019 10 O/NO 20.3
Oggi h: 15:55 coperto Coperto 20 13 64 1019 10 O/NO 18.5
Oggi h: 15:25 molto_nuvoloso Molto Nuvoloso 20 13 64 1019 10 O/NO 18.5
Oggi h: 14:55 poco_nuvoloso Poco Nuvoloso 20 12 59 1019 10 O 25.9
Oggi h: 14:25 molto_nuvoloso Molto Nuvoloso 21 13 60 1019 10 O 24
Oggi h: 13:55 nuvoloso Nuvoloso 20 12 59 1019 10 O 24
Oggi h: 13:25 sereno Sereno 20 10 52 1019 10 O 25.9
Oggi h: 12:55 poco_nuvoloso Poco Nuvoloso 20 12 59 1019 10 O 24
Oggi h: 12:25 poco_nuvoloso Poco Nuvoloso 20 12 59 1019 10 O 27.8
Oggi h: 11:55 sereno Sereno 19 12 63 1019 10 O 22.2
Oggi h: 11:25 poco_nuvoloso Poco Nuvoloso 19 13 68 1018 10 O 22.2
Oggi h: 10:55 nuvoloso Nuvoloso 18 13 72 1018 10 O 20.3
Oggi h: 10:25 poco_nuvoloso Poco Nuvoloso 19 14 72 1018 10 O 16.7
Oggi h: 09:55 sereno Sereno 18 14 77 1018 10 O 14.8
Oggi h: 09:25 sereno Sereno 18 15 82 1017 10 O/SO 13
Oggi h: 08:55 sereno Sereno 17 15 88 1017 10 SO 11.1
Oggi h: 08:25 sereno Sereno 16 14 87 1017 10 S/SO 7.4
Oggi h: 07:55 poco_nuvoloso Poco Nuvoloso 15 14 93 1017 10 SO 7.4
Oggi h: 07:25 sereno Sereno 15 14 93 1017 10 SO 9.3
Oggi h: 06:55 sereno Sereno 15 14 93 1016 10 S/SO 11.1
Oggi h: 06:25 sereno Sereno 15 14 93 1016 10 S/SO 11.1
Oggi h: 05:55 sereno Sereno 14 13 93 1016 10 SO 7.4
Oggi h: 05:25 sereno Sereno 14 13 93 1016 10 SO 9.3
Oggi h: 04:55 sereno Sereno 14 14 100 1016 10 O/SO 9.3
Oggi h: 04:25 sereno Sereno 15 14 93 1016 10 SO 9.3
Oggi h: 03:55 sereno Sereno 15 14 93 1015 10 SO 9.3
Oggi h: 03:25 sereno Sereno 15 14 93 1015 10 SO 9.3
Oggi h: 02:55 nuvoloso Nuvoloso 15 14 93 1015 10 SO 11.1
Oggi h: 02:25 sereno Sereno 14 13 93 1015 10 SO 7.4
Oggi h: 01:55 sereno Sereno 16 14 87 1015 10 SO 11.1
Oggi h: 01:25 sereno Sereno 16 14 87 1015 10 SO 7.4
Oggi h: 00:55 sereno Sereno 16 14 87 1015 10 S/SO 7.4
Oggi h: 00:25 nuvoloso Nuvoloso 16 14 87 1015 10 SO 7.4
Ieri h: 23:55 sereno Sereno 15 14 93 1015 10 O/SO 9.3
Ieri h: 23:25 sereno Sereno 16 14 87 1015 10 O/SO 11.1
Ieri h: 22:55 sereno Sereno 16 14 87 1014 10 O/SO 11.1
Ieri h: 22:25 poco_nuvoloso Poco Nuvoloso 16 14 87 1014 10 O 13
Ieri h: 21:55 sereno Sereno 16 14 87 1014 10 O 16.7
Ieri h: 21:25 molto_nuvoloso Molto Nuvoloso 17 15 88 1013 10 O 13
Ieri h: 20:55 sereno Sereno 16 15 93 1013 10 O/SO 13
Ieri h: 20:25 sereno Sereno 17 15 88 1012 10 O 16.7
Ieri h: 19:55 poco_nuvoloso Poco Nuvoloso 17 15 88 1012 10 O 29.6
Ieri h: 19:25 poco_nuvoloso Poco Nuvoloso 18 14 77 1011 10 O 20.3
Ieri h: 18:55 coperto_pioggia Pioggia 19 14 72 1011 10 O 31.5
Ieri h: 18:25 poco_nuvoloso Poco Nuvoloso 19 14 72 1011 10 O 31.5
Ieri h: 17:55 coperto Coperto 18 15 82 1010 10 O 22.2